This is the latest recevied weather packets stored in our database for station/object AF9W-5. If no packets are shown the sender has not sent any weather packets the latest 10 day(s).
| Time | Temp. | Humidity | Pressure | Rain* | Wind** | Luminosity | Snow |
|---|---|---|---|---|---|---|---|
| 1777272507 | 13.89° C | 42% | 1013.3 hPa | 0 mm | - | 0 W/m² | - |
| 1777272205 | 13.89° C | 42% | 1013.4 hPa | 0 mm | - | 0 W/m² | - |
| 1777271901 | 13.89° C | 42% | 1013 hPa | 0 mm | - | 0 W/m² | - |
| 1777271597 | 13.89° C | 42% | 1013.1 hPa | 0 mm | - | 0 W/m² | - |
| 1777270989 | 13.89° C | 42% | 1013.1 hPa | 0 mm | - | 0 W/m² | - |
| 1777270685 | 13.89° C | 42% | 1013.2 hPa | 0 mm | - | 0 W/m² | - |
| 1777270079 | 14.44° C | 41% | 1013 hPa | 0 mm | - | 0 W/m² | - |
| 1777269776 | 14.44° C | 41% | 1013.2 hPa | 0 mm | - | 0 W/m² | - |
| 1777269473 | 13.89° C | 42% | 1013.3 hPa | 0 mm | - | 0 W/m² | - |
| 1777269171 | 13.89° C | 43% | 1013.1 hPa | 0 mm | - | 0 W/m² | - |
| 1777268868 | 13.89° C | 42% | 1013.1 hPa | 0 mm | - | 0 W/m² | - |
| 1777268565 | 13.89° C | 42% | 1013.1 hPa | 0 mm | - | 0 W/m² | - |
| 1777268261 | 14.44° C | 42% | 1013 hPa | 0 mm | - | 0 W/m² | - |
| 1777267958 | 14.44° C | 41% | 1013.2 hPa | 0 mm | - | 0 W/m² | - |
| 1777267655 | 14.44° C | 41% | 1012.9 hPa | 0 mm | - | 0 W/m² | - |
| 1777266442 | 15.56° C | 39% | 1013 hPa | 0 mm | - | 0 W/m² | - |
| 1777266140 | 15.56° C | 39% | 1013 hPa | 0 mm | - | 0 W/m² | - |
| 1777265839 | 16.11° C | 38% | 1012.6 hPa | 0 mm | - | 0 W/m² | - |
| 1777265535 | 16.11° C | 38% | 1012.8 hPa | 0 mm | - | 0 W/m² | - |
| 1777265230 | 16.11° C | 38% | 1012.9 hPa | 0 mm | - | 0 W/m² | - |
| 1777264928 | 16.67° C | 36% | 1012.9 hPa | 0 mm | - | 0 W/m² | - |
| 1777264624 | 16.67° C | 35% | 1012.3 hPa | 0 mm | - | 0 W/m² | - |
| 1777264322 | 16.67° C | 32% | 1012.4 hPa | 0 mm | - | 0 W/m² | - |
| 1777264020 | 17.22° C | 31% | 1012.2 hPa | 0 mm | - | 0 W/m² | - |
| 1777263716 | 17.22° C | 31% | 1012.4 hPa | 0 mm | - | 0 W/m² | - |
* Rain latest hour (hover to see other rain measurements)
** Current wind speed in m/s (hover to see current wind gust speed)